ドゥ・トイト-ニェウイミン-デルポルト彗星

57P/du Toit-Neujmin-Delporte (2021)

English version
Home page
Updated on January 8, 2021

---------------------------------------------------------------------

・ プロフィール

・ 軌道要素

Epoch 2021 Nov. 2.0 TT = JDT 2459520.5
T 2021 Oct. 17.43264 TT                                 MPCW
q   1.7201108            (2000.0)            P               Q
n   0.15399245     Peri.  115.25966     +0.55951224     +0.82878736
a   3.4472261      Node   188.77421     -0.77720144     +0.52146268
e   0.5010160      Incl.    2.85094     -0.28793049     +0.20294873
P   6.40
From 959 observations 1996 July 24-2015 Dec. 31, mean residual 0".7.
     Nongravitational parameters A1 = +0.50, A2 = -0.0071.

・ 星図

・ 光度変化

        m1 = 8.0 + 5 logΔ + 27.0 log r  [ ,0]  (              〜2021年10月17日)
        m1 = 9.7 + 5 logΔ + 20.0 log r  [0, ]  (2021年10月17日〜              )

---------------------------------------------------------------------

軌道要素はM.P.E.C. 2016-D32に掲載されたものです。
星図はステラナビゲータ Ver.10 (アストロアーツ) で作成したものです。
光度グラフはComet for Windowsで作成したものです。

---------------------------------------------------------------------

Copyright(C) Seiichi Yoshida (comet@aerith.net). All rights reserved.